Temp
-14 -14 -14 -14 -14 -14 -14 -14 -14 -13 -13 -13 -13 -14 -13 -13 -14 -14 -14 -14 -14 -14 -14 -14 -14 -14 -13 -14 -14 -14 -14 -14 -14 -14 -15 -15 -15 -15 -15 -15 -15 -15 -16 -16 -16
-14 -14 -14 -14 -14 -14 -14 -14 -14 -14 -14 -14 -14 -14 -14 -14 -13 -13 -14 -14 -14 -14 -14 -14 -14 -14 -14 -14 -14 -14 -14 -14 -14 -14 -15 -15 -15 -15 -15 -15 -15 -16 -16 -16 -16
-14 -14 -14 -14 -14 -14 -14 -14 -14 -14 -14 -14 -14 -14 -14 -14 -13 -14 -14 -14 -14 -14 -14 -14 -14 -14 -14 -14 -14 -14 -14 -14 -14 -14 -14 -14 -15 -15 -15 -15 -15 -16 -16 -16 -16
-14 -14 -14 -14 -14 -14 -14 -14 -14 -14 -14 -14 -14 -14 -14 -14 -14 -14 -14 -14 -14 -14 -14 -13 -14 -14 -14 -14 -14 -14 -14 -14 -14 -14 -14 -14 -14 -15 -15 -15 -15 -16 -16 -16 -17
-14 -14 -14 -14 -14 -14 -14 -14 -14 -14 -14 -14 -14 -14 -14 -14 -14 -14 -14 -14 -13 -14 -13 -13 -14 -14 -14 -14 -14 -14 -14 -14 -14 -14 -14 -14 -14 -15 -15 -15 -16 -16 -17 -17 -17
-15 -14 -14 -14 -14 -14 -14 -14 -14 -14 -14 -14 -14 -14 -14 -14 -14 -14 -14 -14 -13 -13 -13 -14 -14 -14 -14 -14 -14 -14 -14 -14 -14 -14 -14 -14 -15 -15 -15 -16 -16 -17 -17 -17 -18
-14 -15 -14 -14 -14 -14 -14 -14 -14 -14 -14 -14 -14 -14 -14 -14 -14 -14 -13 -13 -13 -13 -13 -14 -14 -14 -14 -14 -14 -14 -14 -14 -14 -14 -14 -14 -15 -15 -16 -16 -17 -17 -18 -18 -18
-15 -15 -14 -14 -14 -14 -14 -14 -14 -14 -14 -14 -14 -13 -14 -14 -14 -13 -13 -13 -13 -13 -13 -14 -14 -13 -14 -14 -13 -13 -14 -14 -14 -14 -14 -14 -15 -15 -16 -16 -17 -17 -18 -18 -19
-15 -15 -14 -14 -14 -14 -14 -14 -14 -14 -14 -14 -14 -13 -14 -14 -13 -13 -13 -13 -13 -13 -13 -13 -13 -14 -14 -13 -13 -14 -14 -14 -14 -14 -14 -15 -15 -16 -16 -16 -17 -17 -18 -19 -19
-14 -14 -14 -14 -14 -14 -14 -14 -14 -14 -14 -14 -13 -13 -14 -13 -13 -13 -13 -13 -13 -13 -13 -13 -14 -14 -14 -14 -14 -14 -14 -14 -14 -14 -14 -15 -15 -15 -16 -16 -17 -17 -18 -19 -19
-14 -14 -14 -14 -14 -14 -14 -14 -14 -14 -13 -14 -13 -13 -13 -13 -13 -13 -13 -13 -13 -13 -14 -14 -14 -14 -14 -14 -14 -14 -14 -14 -14 -14 -14 -15 -15 -15 -16 -16 -17 -18 -18 -19 -20
-14 -14 -14 -14 -14 -14 -14 -14 -14 -14 -14 -13 -13 -13 -13 -13 -13 -13 -13 -13 -13 -13 -14 -13 -14 -14 -14 -14 -14 -14 -14 -14 -14 -14 -14 -14 -15 -15 -16 -16 -16 -16 -18 -19 -20
-14 -14 -14 -14 -14 -14 -14 -14 -14 -13 -14 -13 -13 -13 -13 -13 -13 -13 -13 -13 -13 -13 -13 -14 -14 -14 -14 -14 -14 -14 -14 -14 -14 -14 -14 -14 -14 -15 -16 -15 -15 -16 -18 -18 -20
-14 -14 -14 -14 -14 -14 -14 -14 -14 -13 -14 -14 -14 -14 -13 -13 -13 -13 -13 -13 -13 -14 -14 -14 -14 -14 -14 -14 -14 -14 -14 -14 -14 -14 -14 -14 -15 -15 -16 -16 -17 -17 -18 -18 -18
-14 -14 -14 -14 -14 -14 -14 -14 -14 -14 -14 -14 -13 -13 -13 -13 -13 -13 -13 -13 -13 -13 -14 -13 -14 -14 -14 -14 -14 -14 -14 -14 -14 -14 -14 -15 -15 -16 -16 -17 -17 -17 -17 -17 -18
-13 -14 -14 -14 -14 -14 -14 -14 -14 -14 -14 -14 -14 -14 -13 -13 -13 -13 -13 -13 -13 -13 -14 -14 -14 -14 -14 -14 -14 -14 -14 -14 -14 -14 -15 -15 -15 -16 -16 -16 -17 -17 -17 -17 -18
-13 -13 -14 -14 -14 -14 -14 -14 -14 -14 -14 -14 -14 -14 -14 -14 -14 -13 -13 -13 -14 -14 -14 -14 -14 -14 -14 -14 -14 -14 -15 -15 -15 -16 -15 -15 -15 -15 -15 -16 -16 -16 -16 -17 -17
-13 -13 -13 -13 -14 -14 -14 -14 -14 -14 -14 -14 -14 -14 -14 -14 -14 -14 -14 -14 -14 -14 -14 -14 -14 -14 -15 -14 -15 -15 -15 -14 -15 -15 -15 -15 -15 -15 -15 -16 -16 -17 -17 -17 -17
-13 -13 -13 -13 -14 -14 -14 -14 -14 -14 -14 -14 -14 -14 -14 -14 -14 -14 -14 -14 -14 -14 -14 -14 -15 -15 -15 -15 -15 -15 -15 -15 -15 -14 -14 -15 -15 -15 -15 -16 -16 -17 -17 -17 -17
-13 -13 -13 -14 -14 -14 -14 -14 -14 -14 -14 -14 -14 -14 -14 -14 -14 -14 -14 -14 -14 -15 -15 -15 -15 -15 -15 -15 -15 -15 -15 -15 -15 -15 -14 -15 -15 -15 -16 -16 -16 -17 -17 -17 -17
-14 -14 -13 -13 -14 -14 -14 -14 -14 -14 -14 -14 -14 -14 -14 -14 -15 -15 -14 -14 -15 -15 -15 -15 -15 -15 -15 -15 -15 -15 -15 -15 -15 -15 -15 -14 -15 -15 -15 -16 -16 -16 -17 -17 -17
-14 -14 -14 -14 -14 -14 -14 -14 -14 -14 -14 -14 -14 -15 -15 -15 -15 -15 -15 -15 -15 -15 -15 -15 -15 -15 -15 -15 -16 -16 -15 -15 -15 -15 -15 -15 -15 -15 -15 -16 -16 -16 -17 -17 -17
-14 -14 -14 -14 -14 -14 -14 -14 -14 -14 -14 -14 -15 -15 -15 -15 -15 -15 -15 -15 -15 -15 -15 -15 -15 -15 -15 -15 -15 -16 -16 -15 -15 -16 -16 -15 -15 -15 -15 -15 -16 -16 -17 -17 -17
-14 -14 -14 -14 -14 -14 -14 -14 -14 -14 -14 -15 -15 -15 -15 -15 -15 -15 -15 -15 -15 -15 -15 -15 -15 -15 -16 -16 -16 -16 -16 -16 -15 -15 -15 -15 -15 -15 -16 -16 -16 -16 -16 -17 -17
-14 -14 -14 -14 -14 -14 -14 -14 -14 -14 -14 -14 -15 -15 -15 -15 -15 -15 -15 -15 -15 -15 -15 -15 -15 -15 -16 -16 -16 -16 -16 -16 -16 -16 -15 -15 -15 -16 -16 -16 -16 -16 -16 -17 -17
-14 -14 -14 -14 -14 -14 -14 -14 -14 -14 -14 -14 -15 -15 -15 -15 -15 -15 -15 -15 -15 -15 -15 -15 -15 -15 -15 -16 -16 -16 -16 -16 -16 -15 -16 -15 -15 -15 -15 -15 -16 -16 -16 -16 -17
-14 -14 -14 -14 -14 -14 -14 -14 -14 -14 -14 -15 -15 -15 -15 -15 -15 -15 -15 -15 -15 -15 -15 -15 -15 -15 -15 -15 -16 -16 -16 -16 -16 -16 -15 -15 -15 -16 -15 -16 -16 -16 -16 -16 -16
Height
5790 5792 5795 5797 5799 5801 5804 5806 5808 5810 5812 5813 5814 5815 5816 5817 5818 5818 5817 5819 5820 5819 5819 5819 5816 5816 5816 5815 5815 5815 5815 5814 5813 5812 5810 5809 5807 5806 5804 5801 5799 5795 5791 5787 5782
5795 5797 5799 5801 5803 5806 5808 5809 5810 5812 5813 5815 5816 5816 5818 5819 5819 5819 5821 5822 5822 5821 5821 5818 5818 5818 5816 5817 5816 5816 5815 5814 5813 5811 5809 5807 5805 5803 5801 5798 5794 5790 5786 5781 5776
5799 5801 5803 5805 5807 5809 5810 5811 5812 5814 5815 5816 5818 5819 5820 5821 5821 5823 5824 5824 5823 5822 5821 5820 5820 5820 5818 5818 5817 5816 5815 5814 5812 5810 5808 5806 5803 5800 5797 5794 5789 5784 5779 5774 5767
5804 5805 5806 5808 5809 5810 5811 5812 5815 5816 5818 5819 5821 5822 5824 5823 5825 5825 5825 5825 5825 5824 5823 5822 5822 5821 5820 5819 5817 5817 5815 5814 5811 5809 5807 5805 5802 5798 5794 5790 5784 5778 5771 5766 5759
5807 5808 5809 5810 5812 5813 5814 5816 5818 5820 5821 5823 5824 5825 5826 5825 5828 5827 5827 5827 5827 5826 5826 5824 5824 5823 5822 5821 5819 5817 5816 5814 5812 5809 5806 5803 5799 5795 5791 5784 5778 5772 5766 5758 5751
5810 5811 5812 5813 5815 5816 5818 5820 5821 5823 5824 5826 5827 5828 5829 5828 5829 5829 5829 5831 5830 5829 5828 5827 5825 5825 5823 5822 5821 5818 5817 5815 5812 5809 5804 5801 5796 5791 5786 5779 5774 5768 5760 5751 5744
5813 5814 5815 5816 5818 5819 5821 5823 5825 5827 5828 5830 5830 5831 5831 5833 5833 5833 5833 5833 5832 5831 5830 5828 5827 5826 5824 5822 5821 5819 5817 5814 5811 5808 5803 5798 5795 5788 5782 5776 5769 5761 5752 5745 5737
5815 5816 5817 5819 5821 5823 5825 5827 5829 5830 5832 5832 5833 5835 5834 5836 5836 5836 5836 5835 5834 5833 5831 5829 5829 5827 5823 5822 5821 5819 5817 5813 5810 5806 5802 5795 5788 5784 5779 5771 5763 5755 5748 5739 5730
5818 5819 5821 5823 5824 5826 5828 5830 5832 5834 5835 5836 5837 5836 5839 5839 5840 5839 5838 5837 5836 5835 5833 5833 5829 5826 5826 5824 5820 5819 5816 5813 5810 5805 5800 5795 5788 5783 5775 5767 5758 5749 5740 5730 5720
5821 5823 5824 5826 5828 5830 5832 5833 5835 5837 5838 5840 5841 5843 5842 5842 5842 5842 5841 5840 5839 5837 5836 5833 5831 5829 5826 5824 5824 5820 5815 5812 5808 5804 5798 5792 5786 5780 5771 5763 5753 5743 5733 5722 5710
5824 5827 5828 5830 5832 5834 5835 5837 5839 5841 5842 5843 5844 5845 5845 5845 5845 5844 5843 5843 5842 5839 5838 5835 5834 5832 5830 5827 5823 5819 5815 5811 5806 5802 5797 5792 5785 5777 5767 5758 5748 5737 5725 5716 5703
5827 5830 5832 5834 5835 5837 5838 5840 5841 5844 5844 5846 5846 5847 5847 5848 5847 5847 5846 5845 5843 5840 5839 5837 5836 5833 5830 5826 5821 5818 5813 5810 5806 5801 5797 5790 5782 5774 5765 5755 5745 5736 5725 5712 5698
5830 5832 5835 5837 5839 5840 5841 5843 5844 5844 5847 5849 5849 5849 5850 5850 5848 5848 5847 5845 5843 5842 5840 5839 5838 5834 5831 5827 5821 5816 5813 5809 5806 5800 5795 5788 5779 5772 5762 5752 5742 5729 5716 5704 5693
5832 5834 5837 5839 5842 5842 5844 5845 5847 5848 5850 5851 5851 5851 5851 5850 5850 5849 5848 5847 5845 5844 5842 5840 5836 5834 5830 5826 5821 5817 5812 5809 5804 5798 5794 5787 5780 5769 5761 5750 5737 5728 5716 5702 5689
5834 5836 5838 5840 5842 5844 5845 5847 5848 5850 5852 5853 5853 5852 5851 5852 5852 5851 5849 5847 5846 5844 5842 5839 5836 5832 5829 5825 5821 5817 5811 5807 5802 5797 5791 5784 5777 5768 5759 5751 5740 5727 5714 5702 5689
5836 5838 5839 5841 5842 5844 5846 5848 5850 5852 5852 5853 5853 5852 5853 5852 5852 5850 5849 5848 5845 5843 5840 5838 5834 5831 5828 5824 5820 5816 5812 5805 5799 5794 5788 5785 5777 5769 5761 5750 5739 5727 5715 5702 5688
5836 5838 5840 5842 5843 5845 5846 5848 5851 5852 5853 5854 5853 5852 5853 5852 5852 5850 5849 5846 5844 5842 5838 5836 5833 5830 5826 5823 5819 5814 5809 5805 5799 5795 5792 5784 5777 5769 5761 5752 5740 5728 5715 5701 5688
5837 5838 5840 5842 5843 5845 5846 5849 5850 5851 5852 5852 5852 5853 5852 5852 5850 5849 5847 5845 5842 5840 5837 5834 5832 5828 5825 5821 5818 5813 5809 5804 5799 5796 5791 5784 5777 5771 5760 5750 5739 5727 5715 5703 5690
5837 5837 5839 5841 5843 5844 5846 5847 5848 5849 5850 5851 5851 5851 5850 5850 5849 5847 5845 5843 5841 5839 5837 5833 5831 5827 5823 5820 5816 5811 5808 5804 5798 5794 5787 5782 5775 5767 5757 5748 5740 5729 5717 5706 5693
5836 5836 5837 5839 5840 5842 5844 5845 5846 5846 5847 5848 5848 5848 5848 5847 5846 5845 5843 5841 5839 5837 5834 5832 5830 5826 5822 5819 5815 5810 5806 5801 5795 5791 5787 5782 5775 5769 5760 5751 5742 5731 5720 5709 5696
5835 5835 5836 5837 5838 5840 5840 5842 5843 5844 5845 5845 5845 5845 5845 5844 5843 5842 5841 5840 5837 5835 5832 5829 5827 5825 5820 5816 5811 5808 5804 5800 5797 5792 5785 5780 5776 5768 5760 5752 5743 5734 5723 5712 5700
5834 5834 5834 5834 5836 5836 5837 5839 5840 5840 5841 5842 5842 5842 5841 5841 5840 5839 5838 5836 5834 5832 5829 5827 5824 5820 5818 5814 5810 5806 5802 5799 5794 5790 5784 5780 5777 5768 5760 5753 5745 5735 5726 5715 5704
5831 5832 5832 5832 5833 5833 5834 5835 5835 5836 5836 5837 5838 5838 5838 5837 5837 5836 5834 5833 5831 5828 5826 5824 5821 5817 5811 5811 5808 5803 5800 5796 5793 5789 5784 5779 5773 5766 5760 5751 5744 5737 5729 5720 5708
5829 5829 5830 5829 5829 5830 5830 5831 5831 5831 5832 5832 5833 5833 5833 5833 5832 5831 5830 5829 5827 5824 5822 5820 5817 5814 5810 5806 5802 5799 5796 5793 5790 5787 5783 5779 5774 5767 5761 5754 5748 5740 5732 5722 5713
5825 5826 5826 5826 5826 5826 5826 5827 5827 5827 5827 5827 5827 5827 5827 5827 5826 5825 5825 5824 5823 5820 5818 5815 5813 5809 5806 5802 5798 5795 5792 5790 5787 5784 5781 5777 5772 5767 5762 5755 5749 5741 5734 5725 5716
5822 5822 5823 5823 5823 5823 5823 5823 5823 5823 5823 5823 5822 5821 5821 5820 5820 5819 5819 5818 5817 5816 5813 5811 5807 5805 5802 5798 5794 5791 5788 5785 5783 5781 5778 5775 5770 5766 5760 5754 5748 5742 5734 5727 5718
5818 5817 5818 5818 5818 5819 5819 5819 5819 5818 5819 5818 5817 5817 5816 5815 5814 5814 5813 5812 5811 5810 5808 5805 5802 5799 5798 5793 5790 5788 5784 5782 5780 5777 5775 5771 5768 5763 5758 5754 5748 5742 5735 5728 5720
Wind_Speed
21 21 20 19 18 16 15 14 14 12 10 10 9 9 8 9 7 13 12 10 9 10 10 5 13 12 11 13 11 11 11 10 11 11 12 13 14 16 18 20 22 25 27 29 31
20 19 19 18 16 15 14 14 13 12 12 11 10 11 13 13 12 15 15 13 12 13 12 16 15 15 17 14 14 13 11 12 12 13 14 15 17 20 21 22 24 27 29 31 33
18 17 16 16 15 15 14 13 13 12 12 14 16 17 16 11 11 16 13 14 15 16 17 18 19 16 16 14 13 12 13 13 14 15 16 17 20 22 24 24 27 29 30 31 33
18 17 16 15 14 14 13 13 14 14 16 21 20 19 19 21 18 13 14 15 17 18 17 18 17 16 17 16 16 16 15 16 16 16 17 17 19 22 24 27 29 31 32 33 34
16 14 13 13 13 13 14 15 18 20 21 20 23 20 17 19 13 16 18 19 19 19 17 17 16 15 15 15 17 17 18 18 18 18 18 19 21 23 25 27 28 31 33 35 36
13 12 12 13 15 16 18 21 22 21 22 23 21 17 13 18 18 20 20 18 17 15 14 14 15 14 13 14 15 16 16 16 17 19 20 22 23 25 28 31 33 35 36 36 37
12 12 14 16 18 20 22 23 23 22 22 19 17 14 19 17 19 18 16 15 14 13 14 15 15 12 12 15 14 14 15 16 17 20 23 26 25 29 32 35 37 38 38 38 40
13 14 15 19 23 24 24 24 23 21 19 17 16 19 21 18 17 15 14 15 15 15 17 18 13 13 16 15 11 14 13 18 19 22 25 29 34 34 37 40 41 42 43 41 41
14 16 20 23 23 24 23 22 20 18 17 17 17 21 16 15 13 16 16 16 17 17 19 15 21 23 17 13 17 14 14 16 17 23 25 27 33 36 38 41 43 46 46 45 43
17 20 20 21 23 23 21 19 17 16 17 17 18 17 13 13 15 15 17 15 14 15 15 20 23 25 26 25 16 14 14 17 21 24 27 30 34 36 38 43 46 47 50 49 48
19 19 20 21 22 20 17 15 16 17 16 15 14 13 13 13 12 12 13 10 11 16 17 21 20 20 21 21 21 19 16 17 20 23 29 32 32 37 41 45 48 51 53 52 50
19 20 20 20 18 16 14 14 16 16 15 11 11 13 12 9 10 11 10 11 13 16 16 18 17 19 21 23 25 22 19 19 19 22 27 33 37 38 43 46 49 53 55 55 56
18 20 19 18 16 14 12 14 15 17 12 11 11 11 9 6 8 11 13 13 13 13 15 14 15 18 20 21 24 24 19 18 18 21 28 34 39 40 45 47 51 57 61 63 60
17 19 18 17 15 13 12 13 14 13 10 10 9 7 6 7 7 9 11 12 11 11 11 13 16 17 19 22 24 24 20 18 18 22 26 32 38 44 46 49 53 55 57 61 65
16 17 18 16 15 12 12 12 13 11 10 8 6 4 5 6 7 9 10 10 10 11 13 16 17 19 20 21 23 23 21 17 18 23 28 34 38 43 47 48 50 53 56 61 64
15 17 17 17 14 12 13 12 12 10 6 6 3 2 1 3 6 8 10 10 11 13 16 17 19 19 19 20 21 23 18 19 20 24 31 30 34 39 44 49 50 50 53 59 64
12 16 18 16 15 13 13 12 12 10 7 6 4 3 3 3 6 8 10 12 13 15 17 18 18 19 20 19 17 22 24 24 23 24 24 29 33 37 41 44 48 49 52 57 63
9 14 18 17 16 14 13 13 12 12 9 8 6 5 6 7 7 9 11 13 14 15 17 18 21 21 21 21 20 20 22 23 24 23 22 26 32 35 40 43 49 52 53 57 60
5 11 15 18 17 16 15 14 14 13 12 11 10 10 9 9 10 11 12 14 14 15 16 17 18 20 21 21 21 19 20 22 23 23 26 28 32 37 41 44 46 50 52 55 60
4 7 11 16 19 19 18 16 16 16 15 15 14 13 13 12 12 12 13 14 15 16 16 17 18 20 21 21 21 20 20 22 25 27 24 26 29 33 36 40 43 47 50 52 57
7 7 8 12 17 20 21 19 19 18 18 16 16 15 15 15 14 14 14 14 16 16 17 18 19 19 21 22 24 19 18 19 20 21 25 25 28 31 34 37 39 42 47 50 54
9 9 9 9 13 17 21 22 22 22 22 21 19 18 17 17 16 16 16 17 18 18 18 19 20 21 22 21 21 20 20 18 21 22 23 24 25 30 32 34 37 40 43 48 51
12 11 12 12 12 14 17 21 24 25 25 24 23 23 21 20 20 18 19 19 20 20 19 19 20 23 27 24 19 19 17 17 18 18 19 24 28 28 32 35 36 37 39 42 46
13 14 13 14 14 15 16 16 19 22 24 27 27 27 25 24 23 22 23 22 22 21 20 19 19 22 24 25 25 22 18 16 16 16 16 18 21 25 28 29 32 35 36 38 41
14 15 16 15 16 16 16 17 18 18 19 22 24 27 28 28 27 27 26 25 24 23 21 22 20 23 22 24 24 21 20 17 15 15 15 17 19 22 26 28 29 33 35 36 38
15 15 17 19 17 17 16 17 18 18 19 19 20 22 24 26 27 28 28 26 24 22 23 23 25 24 21 21 22 20 19 17 17 14 14 15 18 20 23 27 29 30 33 34 36
18 18 18 19 19 18 18 17 18 18 18 20 20 19 20 22 24 24 23 24 24 23 23 26 26 25 21 20 19 17 17 17 16 15 15 15 18 20 23 26 28 28 32 33 35
Wind_Direction
103 108 110 113 116 117 119 119 118 118 114 103 93 94 96 91 105 103 83 73 66 64 59 62 59 54 58 51 47 45 34 27 21 15 7 355 343 332 323 318 314 312 312 308 303
103 105 110 113 114 118 118 116 110 105 103 104 104 100 99 105 111 83 82 79 72 69 65 66 65 60 58 52 50 50 37 21 6 357 350 343 337 331 325 320 321 320 320 321 320
102 106 112 116 119 117 111 106 104 105 108 106 104 108 102 107 103 86 79 70 73 73 69 66 59 51 51 44 35 29 19 12 7 360 354 346 340 332 331 330 329 329 327 324 323
111 114 113 111 108 105 105 108 109 111 111 110 105 105 108 90 87 88 77 78 79 71 66 60 57 54 52 46 42 34 29 24 17 8 359 350 348 345 340 339 335 329 325 323 322
102 103 104 104 106 108 110 110 113 112 111 106 108 106 101 98 92 91 90 84 78 72 64 62 57 49 45 37 31 26 26 21 16 11 6 0 355 350 343 339 334 331 330 327 324
99 102 104 109 111 111 114 114 114 113 110 109 106 104 101 94 93 90 85 79 73 67 57 50 42 29 29 27 18 19 16 17 15 10 0 359 349 347 345 341 341 339 334 329 324
107 110 113 112 111 113 116 115 112 111 110 106 105 102 108 102 98 92 85 69 55 48 45 41 33 20 25 25 16 20 13 12 14 7 359 353 350 350 347 346 347 343 336 335 331
113 117 118 117 117 115 113 112 114 111 108 105 102 116 97 100 91 79 65 58 52 52 49 42 36 39 34 25 24 25 9 15 9 360 359 349 347 351 351 350 350 345 343 341 335
116 121 121 120 115 114 116 114 110 109 112 110 110 104 96 90 83 74 64 59 57 58 57 54 47 38 37 36 40 26 11 10 5 1 358 349 347 355 352 352 351 348 347 345 341
117 123 122 120 122 121 118 114 112 115 114 114 115 101 98 87 79 74 65 60 63 62 56 51 46 41 39 37 33 24 20 15 10 9 2 360 358 358 355 357 355 352 351 351 347
124 128 129 130 127 122 119 120 120 117 121 114 109 101 100 92 79 64 61 57 60 55 44 41 31 31 31 29 29 28 27 17 15 13 6 8 5 2 359 360 359 357 355 354 351
137 137 138 136 132 128 125 127 129 124 115 115 114 105 98 94 78 60 56 58 47 44 34 35 20 24 24 20 22 21 25 22 13 12 10 12 8 1 3 359 1 359 0 359 1
148 145 145 143 140 135 131 135 137 128 127 124 116 103 97 83 59 47 43 43 36 31 25 21 12 15 13 17 18 17 16 14 10 12 12 7 8 5 1 358 359 3 2 1 3
160 157 154 152 151 145 141 148 144 137 136 128 117 110 89 62 49 40 36 34 27 25 16 7 6 4 8 15 15 14 13 9 8 12 14 9 4 8 6 1 2 3 1 2 1
173 170 164 162 158 153 155 160 158 148 146 151 146 113 71 50 32 23 16 16 6 4 1 359 353 352 357 5 9 12 14 4 7 8 11 11 6 5 5 3 3 3 3 1 2
182 180 177 171 169 167 171 173 176 171 169 178 177 133 54 7 8 12 2 350 339 340 344 345 348 348 352 354 2 4 11 14 8 7 14 5 5 5 2 3 2 3 2 2 4
185 190 189 187 182 180 185 189 192 196 198 204 214 229 276 316 341 346 342 339 335 335 340 344 344 348 349 351 353 4 8 10 10 2 2 360 4 1 359 1 360 4 1 3 5
199 198 200 200 199 198 197 200 205 213 225 232 245 265 277 293 311 322 327 331 334 337 339 342 345 348 349 349 354 352 3 4 6 6 1 2 2 4 1 0 3 4 3 2 3
212 214 211 211 211 212 211 213 216 224 232 239 250 259 269 281 295 309 320 325 327 330 333 337 341 346 345 346 349 350 356 0 357 6 8 2 0 6 2 2 1 3 3 5 4
230 220 225 222 223 225 228 227 229 230 233 239 246 255 264 274 288 302 312 319 319 322 324 329 334 340 342 344 345 346 346 355 359 4 6 5 4 4 2 1 1 2 4 5 8
239 235 229 234 233 235 237 238 242 243 246 250 255 261 268 276 284 296 303 311 316 316 315 320 326 334 336 338 339 340 345 351 356 1 1 5 4 4 3 2 3 3 3 6 8
251 247 241 237 243 245 243 244 247 250 253 256 261 265 270 274 278 288 294 304 313 312 309 311 319 325 330 333 332 336 338 342 350 355 2 1 6 2 5 3 4 6 7 6 6
253 255 252 247 249 255 255 253 253 255 256 259 262 267 271 273 275 281 289 297 308 310 308 313 313 320 327 329 331 329 333 334 342 350 356 2 359 0 4 6 2 2 6 9 9
256 259 259 257 255 257 260 263 264 263 263 263 264 266 268 270 272 278 284 291 300 304 305 311 314 317 320 319 324 325 326 327 330 340 351 358 5 3 360 359 1 2 2 7 8
257 260 261 263 261 262 261 260 265 269 275 273 271 267 267 269 272 275 281 286 293 296 301 307 314 314 317 314 316 318 315 316 317 330 337 347 353 360 359 359 360 3 3 3 6
252 261 265 264 264 267 268 267 268 271 275 280 279 275 273 270 271 276 277 282 286 287 296 303 309 311 316 311 313 311 306 306 304 315 322 334 342 348 353 359 1 2 3 2 360
255 258 265 268 268 267 269 271 275 277 277 276 279 282 281 278 276 277 279 281 284 286 291 300 304 309 317 316 313 307 298 298 293 303 314 322 330 339 348 353 358 358 3 2 359